Location: Shepherdstown, WV
(39.4326°N, 77.8042°W)
Time: 14:39:40
(UTC-04:00)

Vanguard 1 Rocket - Pass Details

Date: 12 August 2021
Orbit: 650 x 4226 km, 34.3° (Epoch: 20 September)

Event Time Altitude Azimuth Distance (km) Brightness Sun altitude
Rises 03:42:22 0° 171° (S) 7,365 11.7 -25.9°
Reaches altitude 10° 03:52:07 10° 149° (SSE) 6,998 11.7 -24.7°
Maximum altitude 04:01:35 14° 125° (SE) 7,029 12.0 -23.4°
Drops below altitude 10° 04:11:24 10° 103° (ESE) 7,417 12.4 -22.1°
Sets 04:22:06 0° 82° (E) 8,173 13.2 -20.6°
